This is the latest recevied weather packets stored in our database for station/object S57D-6. If no packets are shown the sender has not sent any weather packets the latest 10 day(s).
| Time | Temp. | Humidity | Pressure | Rain* | Wind** | Luminosity | Snow |
|---|---|---|---|---|---|---|---|
| 1777978344 | 17.22° C | 61% | 1013.7 hPa | 0 mm | - | - | - |
| 1777978044 | 17.22° C | 61% | 1013.7 hPa | 0 mm | - | - | - |
| 1777977743 | 17.22° C | 60% | 1013.8 hPa | 0 mm | - | - | - |
| 1777977142 | 17.22° C | 60% | 1013.9 hPa | 0 mm | - | - | - |
| 1777976843 | 17.22° C | 60% | 1013.8 hPa | 0 mm | - | - | - |
| 1777976542 | 17.22° C | 59% | 1013.7 hPa | 0 mm | - | - | - |
| 1777976242 | 17.22° C | 59% | 1013.7 hPa | 0 mm | - | - | - |
| 1777975941 | 17.22° C | 59% | 1013.7 hPa | 0 mm | - | - | - |
| 1777975642 | 17.22° C | 59% | 1013.6 hPa | 0 mm | - | - | - |
| 1777975341 | 17.78° C | 59% | 1013.6 hPa | 0 mm | - | - | - |
| 1777975041 | 17.78° C | 59% | 1013.5 hPa | 0 mm | - | - | - |
| 1777974740 | 17.78° C | 58% | 1013.5 hPa | 0 mm | - | - | - |
| 1777974440 | 17.78° C | 58% | 1013.4 hPa | 0 mm | - | - | - |
| 1777974139 | 17.78° C | 59% | 1013.4 hPa | 0 mm | - | - | - |
| 1777973840 | 17.78° C | 59% | 1013.2 hPa | 0 mm | - | - | - |
| 1777973539 | 17.78° C | 60% | 1013.2 hPa | 0 mm | - | - | - |
| 1777973240 | 18.33° C | 61% | 1013.3 hPa | 0 mm | - | - | - |
| 1777972938 | 18.33° C | 61% | 1013.2 hPa | 0 mm | - | - | - |
| 1777972639 | 18.33° C | 61% | 1013.2 hPa | 0 mm | - | - | - |
| 1777972338 | 18.89° C | 61% | 1013.2 hPa | 0 mm | - | - | - |
| 1777972039 | 18.89° C | 61% | 1013.1 hPa | 0 mm | - | - | - |
| 1777971737 | 18.89° C | 61% | 1013 hPa | 0 mm | - | - | - |
| 1777971137 | 19.44° C | 59% | 1012.9 hPa | 0 mm | - | - | - |
| 1777970837 | 20° C | 59% | 1012.9 hPa | 0 mm | - | - | - |
| 1777970536 | 19.44° C | 61% | 1012.9 hPa | 0 mm | - | - | - |
* Rain latest hour (hover to see other rain measurements)
** Current wind speed in m/s (hover to see current wind gust speed)